This demonstration page uses our WeatherBlox Daily Observations layout. Learn more.

Left ArrowRight Arrow

44.89941, -97.11507

Hourly Observations for January 18, 2023

Temp ( °F °C ) Dew Point ( °F °C ) Humidity (%) Winds ( mph kmh ) Pressure ( in mb ) Visibility ( mi km ) Precip ( " mm )
12:53 am 00:53 Cloudy 20 -6.7 18 -7.8 92 92 N 7 11 30.02 1017 10 16 0.00 0.00
1:00 am 01:00 Cloudy 19 -7.2 17 -8.3 92 92 N 8 13 30.06 1018 10 16 0.00 0.00
1:53 am 01:53 Cloudy 19 -7.2 18 -7.8 95 95 N 5 7 30.03 1017 10 16 0.00 0.00
2:48 am 02:48 Cloudy 19 -7 18 -8 93 93 NNE 5 7 30.09 1019 10 16 0.00 0.00
2:53 am 02:53 Cloudy 19 -7.2 18 -7.8 95 95 NNE 7 11 30.04 1017 10 16 0.00 0.00
3:12 am 03:12 Cloudy 19 -7.2 18 -7.8 95 95 NNE 5 7 30.09 1019 10 16 0.00 0.00
3:53 am 03:53 Cloudy 19 -7.2 18 -7.8 95 95 N 3 6 30.04 1017 10 16 0.00 0.00
4:05 am 04:05 Cloudy 20 -6.7 18 -7.8 92 92 NE 6 9 30.09 1019 10 16 0.00 0.00
4:53 am 04:53 Cloudy 20 -6.7 18 -7.8 92 92 NNE 6 9 30.04 1017 10 16 0.00 0.00
5:53 am 05:53 Cloudy 19 -7.2 17 -8.3 92 92 NE 6 9 30.05 1018 10 16 0.00 0.00
6:53 am 06:53 Cloudy 20 -6.7 17 -8.3 88 88 Calm 30.06 1018 10 16 0.00 0.00
7:53 am 07:53 Cloudy 19 -7.2 17 -8.3 92 92 NNE 3 6 30.05 1018 10 16 0.00 0.00
8:53 am 08:53 Cloudy 20 -6.7 18 -7.8 92 92 N 7 11 30.04 1017 8 13 0.00 0.00
9:14 am 09:14 Cloudy 20 -6.7 18 -7.8 92 92 NE 9 15 30.09 1019 8 13 0.00 0.00
9:53 am 09:53 Cloudy 20 -6.7 18 -7.8 92 92 NNE 8 13 30.03 1017 10 16 0.00 0.00
10:53 am 10:53 Cloudy 21 -6.1 19 -7.2 92 92 NNE 7 11 30.06 1018 9 14 0.00 0.00
11:41 am 11:41 Cloudy 20 -6.7 18 -7.8 92 92 NE 8 13 30.08 1019 7 11 0.00 0.00
11:53 am 11:53 Cloudy 20 -6.7 19 -7.2 96 96 N 8 13 30.03 1017 7 11 0.00 0.00
12:07 pm 12:07 Cloudy with Mist and Fog 20 -6.7 18 -7.8 92 92 NE 8 13 30.07 1018 6 10 0.00 0.00
12:53 pm 12:53 Cloudy 21 -6.1 19 -7.2 92 92 NNE 6 9 30.01 1016 10 16 0.00 0.00
1:02 pm 13:02 Cloudy 21 -6.1 19 -7.2 92 92 NNE 7 11 30.04 1017 10 16 0.00 0.00
1:28 pm 13:28 Cloudy 21 -6.1 19 -7.2 92 92 NE 9 15 30.04 1017 10 16 0.00 0.00
1:53 pm 13:53 Cloudy 21 -6.1 19 -7.2 92 92 NE 7 11 29.98 1015 10 16 0.00 0.00
2:53 pm 14:53 Cloudy 20 -6.7 18 -7.8 92 92 NE 8 13 29.98 1015 10 16 0.00 0.00
3:23 pm 15:23 Cloudy 20 -6.7 19 -7.2 96 96 NNE 9 15 30.02 1017 8 13 0.00 0.00
3:47 pm 15:47 Cloudy with Mist and Fog 19 -7 18 -8 93 93 NNE 10 17 30.02 1017 1 1 0.00 0.00
3:53 pm 15:53 Cloudy with Freezing Fog 19 -7.2 18 -7.8 95 95 NNE 8 13 29.98 1015 1 1 0.00 0.00
4:03 pm 16:03 Cloudy with Freezing Fog 19 -7.2 18 -7.8 95 95 NNE 10 17 30.03 1017 0 0 0.00 0.00
4:53 pm 16:53 Cloudy with Freezing Fog 18 -7.8 17 -8.3 96 96 NNE 14 22 29.96 1015 0 0 0.00 0.00
5:27 pm 17:27 Cloudy with Freezing Fog 18 -7.8 17 -8.3 96 96 NNE 14 22 30.01 1016 1 1 0.00 0.00
5:53 pm 17:53 Cloudy with Freezing Fog 18 -7.8 17 -8.3 96 96 NNE 12 19 29.96 1015 1 1 0.00 0.00
6:40 pm 18:40 Cloudy with Mist and Fog 19 -7.2 18 -7.8 95 95 N 8 13 29.99 1016 1 2 0.00 0.00
6:53 pm 18:53 Cloudy with Mist and Fog 19 -7.2 19 -7.2 100 100 NNE 8 13 29.95 1014 1 2 0.00 0.00
7:00 pm 19:00 Cloudy with Mist and Fog 20 -6.7 19 -7.2 96 96 NNE 6 9 30.00 1016 2 3 0.00 0.00
7:08 pm 19:08 Cloudy with Mist and Fog 20 -6.7 20 -6.7 100 100 NNE 7 11 30.00 1016 2 3 0.00 0.00
7:53 pm 19:53 Cloudy with Mist and Fog 20 -6.7 19 -7.2 96 96 NNE 9 15 29.95 1014 2 3 0.00 0.00
8:09 pm 20:09 Cloudy with Mist and Fog 20 -6.7 19 -7.2 96 96 N 12 19 30.00 1016 1 2 0.00 0.00
8:25 pm 20:25 Cloudy with Mist and Fog 20 -6.7 20 -6.7 100 100 N 8 13 29.99 1016 1 1 0.00 0.00
8:39 pm 20:39 Cloudy with Mist and Fog 21 -6.1 20 -6.7 95 95 NNE 9 15 29.99 1015 1 2 0.00 0.00
8:46 pm 20:46 Cloudy with Mist and Fog 21 -6.1 20 -6.7 95 95 NNE 10 17 29.97 1015 1 1 0.00 0.00
8:53 pm 20:53 Cloudy with Mist and Fog 21 -6.1 20 -6.7 95 95 NNE 12 19 29.93 1014 1 1 0.00 0.00
9:19 pm 21:19 Cloudy with Mist and Fog 22 -5.6 21 -6.1 96 96 NNE 13 20 29.95 1014 1 2 0.00 0.00
9:34 pm 21:34 Cloudy with Mist and Fog 22 -5.6 21 -6.1 96 96 NNE 13 20 29.95 1014 2 3 0.00 0.00
9:53 pm 21:53 Cloudy with Mist and Fog 22 -5.6 21 -6.1 96 96 NNE 12 19 29.91 1013 4 6 0.00 0.00
10:30 pm 22:30 Cloudy with Mist and Fog 23 -5 22 -5.6 96 96 NNE 12 19 29.94 1014 3 4 0.00 0.00
10:41 pm 22:41 Cloudy with Mist and Fog 23 -5 22 -5.6 96 96 NNE 13 20 29.94 1014 2 3 0.00 0.00
10:53 pm 22:53 Cloudy with Mist and Fog 23 -5 22 -5.6 96 96 NNE 12 19 29.90 1013 1 2 0.00 0.00
11:30 pm 23:30 Cloudy with Mist and Fog 22 -5.6 21 -6.1 96 96 NNE 10 17 29.93 1014 2 3 0.00 0.00
11:38 pm 23:38 Cloudy with Mist and Fog 22 -5.6 21 -6.1 96 96 NNE 13 20 29.93 1014 2 3 0.00 0.00
11:50 pm 23:50 Cloudy with Mist and Fog 22 -5.6 22 -5.6 100 100 NNE 12 19 29.88 1012 1 2 0.00 0.00

Powered by AerisWeather